Miles City, MT

1:27 AM MST on January 16, 2018 (GMT -0700)
Wiley

Weather History for KMLS - December, 2011

Change the Weather History Date:

Wednesday, December 14, 2011

  Actual Average Record
Temperature  
Mean Temperature 25 °F 20 °F  
Max Temperature 34 °F 31 °F 56 °F (1939)
Min Temperature 15 °F 10 °F -24 °F (1963)
Degree Days  
Heating Degree Days 40 45  
Month to date heating degree days 581 603  
Since 1 July heating degree days 2125 2402  
Cooling Degree Days 0 0  
Month to date cooling degree days 0 0  
Year to date cooling degree days 763 730  
Moisture  
Dew Point 18 °F    
Average Humidity 74    
Maximum Humidity 100    
Minimum Humidity 47    
Precipitation  
Precipitation 0.00 in 0.01 in 0.11 in (1982)
Month to date precipitation 0.02 0.11  
Year to date precipitation 18.67 12.26  
Sea Level Pressure  
Sea Level Pressure 29.92 in    
Wind  
Wind Speed 12 mph (SW)    
Max Wind Speed 28 mph    
Max Gust Speed 37 mph    
Visibility 6 miles    
Events Fog    
T = Trace of Precipitation, MM = Missing Value Source: NWS Daily Summary

Daily Weather History Graph

Daily Weather History Graph

Search for Another Location

Airport or City:

Trip Planner

Search our weather history database for the weather conditions in past years. The results will help you decide how hot, cold, wet, or windy it might be!

Date:

Astronomy

Dec. 14, 2011 Rise Set
Actual Time 7:39 AM MST 4:16 PM MST
Civil Twilight 7:04 AM MST 4:51 PM MST
Nautical Twilight 6:26 AM MST 5:30 PM MST
Astronomical Twilight 5:49 AM MST 6:06 PM MST
Moon 8:51 PM MST (12/14) 10:15 AM MST (12/14)
Length of Visible Light 9h 47m
Length of Day
8h 37m
Waning Gibbous, 83% of the Moon is Illuminated
Dec 14
Waning Gibbous
Dec 17
Last Quarter
Dec 24
New
Dec 31
First Quarter
Jan 9
Full

Hourly Weather History & Observations

Time (MST) Temp. Windchill Dew Point Humidity Pressure Visibility Wind Dir Wind Speed Gust Speed Precip Events Conditions
12:00 AM 21.2 °F 13.6 °F 21.2 °F 100% 29.79 in 1.5 mi SSE 5.8 mph - N/A   Overcast
12:22 AM 21.2 °F 14.9 °F 21.2 °F 100% 29.78 in 0.8 mi South 4.6 mph - N/A   Mist
12:53 AM 21.2 °F 13.6 °F 21.2 °F 100% 29.77 in 0.5 mi South 5.8 mph - N/A Fog Light Freezing Fog
1:51 AM 21.2 °F 14.9 °F 19.4 °F 93% 29.78 in 0.2 mi South 4.6 mph - N/A Fog Light Freezing Fog
1:53 AM 21.9 °F 15.7 °F 19.9 °F 92% 29.87 in 0.2 mi SSW 4.6 mph - N/A Fog Light Freezing Fog
2:53 AM 21.0 °F 9.9 °F 19.0 °F 92% 29.87 in 0.2 mi SSE 10.4 mph - N/A Fog Light Freezing Fog
3:07 AM 21.2 °F 10.1 °F 19.4 °F 93% 29.77 in 0.5 mi SSE 10.4 mph - N/A Fog Light Freezing Fog
3:53 AM 19.0 °F 9.0 °F 17.1 °F 92% 29.86 in 0.2 mi South 8.1 mph - N/A Fog Light Freezing Fog
4:24 AM 19.4 °F 9.5 °F 17.6 °F 93% 29.75 in 0.5 mi South 8.1 mph - N/A Fog Light Freezing Fog
4:42 AM 17.6 °F 8.2 °F 15.8 °F 93% 29.75 in 0.2 mi South 6.9 mph - N/A Fog Light Freezing Fog
4:53 AM 18.0 °F 7.7 °F 17.1 °F 96% 29.85 in 0.5 mi SSE 8.1 mph - N/A Fog Light Freezing Fog
5:25 AM 17.6 °F 8.2 °F 15.8 °F 93% 29.75 in 1.2 mi South 6.9 mph - N/A   Overcast
5:39 AM 17.6 °F 8.2 °F 15.8 °F 93% 29.75 in 3.0 mi SSE 6.9 mph - N/A   Overcast
5:53 AM 16.0 °F 7.4 °F 12.9 °F 88% 29.86 in 5.0 mi SSE 5.8 mph - N/A   Overcast
6:18 AM 15.8 °F 5.1 °F 12.2 °F 86% 29.74 in 2.5 mi South 8.1 mph - N/A   Mostly Cloudy
6:25 AM 15.8 °F 6.1 °F 12.2 °F 86% 29.74 in 7.0 mi South 6.9 mph - N/A   Mostly Cloudy
6:32 AM 15.8 °F 5.1 °F 12.2 °F 86% 29.74 in 8.0 mi South 8.1 mph - N/A   Scattered Clouds
6:53 AM 16.0 °F 7.4 °F 12.9 °F 88% 29.86 in 8.0 mi South 5.8 mph - N/A   Scattered Clouds
7:53 AM 17.1 °F 8.7 °F 14.0 °F 88% 29.87 in 9.0 mi South 5.8 mph - N/A   Overcast
8:53 AM 21.0 °F 11.4 °F 17.1 °F 85% 29.86 in 10.0 mi West 8.1 mph - N/A   Overcast
9:53 AM 25.0 °F 18.1 °F 21.9 °F 88% 29.89 in 10.0 mi West 5.8 mph - N/A   Overcast
10:53 AM 30.0 °F 20.5 °F 27.0 °F 88% 29.89 in 10.0 mi WNW 11.5 mph - N/A   Overcast
11:53 AM 34.0 °F 22.4 °F 21.9 °F 61% 29.90 in 10.0 mi NW 20.7 mph - N/A   Overcast
12:53 PM 33.1 °F 21.5 °F 18.0 °F 54% 29.94 in 10.0 mi NW 19.6 mph 32.2 mph N/A   Overcast
1:53 PM 33.1 °F 20.9 °F 19.0 °F 56% 29.98 in 10.0 mi NW 21.9 mph 27.6 mph N/A   Overcast
2:53 PM 33.1 °F 23.4 °F 16.0 °F 50% 30.02 in 10.0 mi NW 13.8 mph - N/A   Scattered Clouds
3:53 PM 32.0 °F 21.6 °F 18.0 °F 56% 30.07 in 10.0 mi NW 15.0 mph 21.9 mph N/A   Overcast
4:53 PM 30.9 °F 18.1 °F 19.0 °F 61% 30.11 in 10.0 mi NW 21.9 mph 27.6 mph N/A   Overcast
5:53 PM 28.9 °F 15.4 °F 19.0 °F 67% 30.14 in 10.0 mi NW 21.9 mph 29.9 mph N/A   Overcast
6:53 PM 28.0 °F 14.6 °F 19.0 °F 69% 30.17 in 10.0 mi NNW 20.7 mph 28.8 mph N/A   Overcast
7:53 PM 27.0 °F 16.1 °F 19.0 °F 72% 30.20 in 10.0 mi NW 12.7 mph - N/A   Overcast
8:53 PM 27.0 °F 18.0 °F 19.0 °F 72% 30.20 in 10.0 mi NW 9.2 mph - N/A   Overcast
9:53 PM 26.1 °F 18.4 °F 18.0 °F 71% 30.20 in 10.0 mi West 6.9 mph - N/A   Overcast
10:53 PM 27.0 °F 18.7 °F 19.9 °F 75% 30.20 in 10.0 mi WNW 8.1 mph - N/A   Overcast
11:53 PM 28.0 °F 18.6 °F 19.0 °F 69% 30.20 in 10.0 mi WNW 10.4 mph - N/A   Overcast